Regional Weather Roundup
Issued by NWS Northern Indiana

Home | Current Version | Previous Version | Graphics & Text | Print | Product List | Glossary On
Versions: 1 2 3 4 5 6 7 8 9 10 11 12 13 14 15 16 17 18 19 20 21 22 23 24 25 26 27 28 29 30 31 32 33 34 35 36 37 38 39 40 41 42 43 44 45 46 47 48 49 50
000
ASUS43 KIWX 210400
RWRIWX

KIWX WEATHER ROUNDUP
NATIONAL WEATHER SERVICE NORTHERN INDIANA
1200 AM EDT SAT APR 21 2018

NOTE: "FAIR" INDICATES FEW OR NO CLOUDS BELOW 12,000 FEET WITH NO
SIGNIFICANT WEATHER AND/OR OBSTRUCTIONS TO VISIBILITY.

* THESE STATIONS ARE NOT UNDER NWS QUALITY CONTROL. THEY ALSO MAY NOT
  REPORT WEATHER SUCH AS PRECIPITATION OR FOG.

INZ001>027-210500-
NORTHERN INDIANA

CITY           SKY/WX    TMP DP  RH WIND       PRES   REMARKS
KNOX*          FAIR      37  21  52 NE3       30.44F
SOUTH BEND     FAIR      39  15  37 N3        30.45S
GOSHEN         FAIR      41  25  53 N3        30.44S
MONTICELLO*    FAIR      45  20  38 NE7       30.43S
ROCHESTER*     FAIR      45  25  45 N3        30.44S
WARSAW*        FAIR      41  28  60 CALM      30.44S
FORT WAYNE     FAIR      40  30  67 CALM      30.43S
PERU/GRISSOM   FAIR     N/A N/A N/A CALM        N/A

$$
INZ028>050-210500-
CENTRAL INDIANA

CITY           SKY/WX    TMP DP  RH WIND       PRES   REMARKS
LAFAYETTE      FAIR      45  25  45 N9        30.42R
KOKOMO*        FAIR      39  32  76 CALM      30.43S
MUNCIE*        FAIR      44  26  49 CALM      30.42S
INDIANAPOLIS   FAIR      48  24  39 NE6       30.41S

$$
MIZ043>046-050>051-056>058-064>065-071>073-077>080-210500-
SOUTHWEST LOWER MICHIGAN

CITY           SKY/WX    TMP DP  RH WIND       PRES   REMARKS
BATTLE CREEK   FAIR      42  25  50 CALM      30.45S
BENTON HARBOR  FAIR      34  20  56 CALM      30.46R
COLDWATER*     FAIR      44  24  45 CALM      30.44S
HILLSDALE*     FAIR      41  19  42 E7        30.43S
HOLLAND        FAIR      38  20  48 CALM      30.46S
GRAND RAPIDS   FAIR      44  19  36 W6        30.45R
KALAMAZOO      FAIR      43  20  39 N3        30.45S

$$
OHZ001>008-015>018-024>025-210500-
NORTHWEST OHIO

CITY           SKY/WX    TMP DP  RH WIND       PRES   REMARKS
WAUSEON*       FAIR      41  28  60 E8        30.45R
DEFIANCE       FAIR      44  24  45 SE6       30.44R
FINDLAY        FAIR      42  23  46 E7        30.43F
TOLEDO EXPRESS FAIR      42  26  53 CALM      30.45S
TOLEDO METCALF FAIR      42  26  53 E3        30.47R
LIMA           FAIR      40  26  57 SE8       30.43S

$$
AND FOR LAKE MICHIGAN COASTAL AND OPEN LAKE BUOY OBSERVATIONS

STATION/POSITION TEMP    WIND        PRES    VSBY  WAVE
                 AIR SEA DIR/SP/G                  HT/PER
                 (F)     (DEG/KT/KT) (MB)    (MI)  (FT/S)
CALUMET HARBOR    39      10/  2/  3 1030.3S
MICHIGAN CITY     43      70/  5/  6   N/A
BURNS HARBOR      44      80/  7/  8 1031.2S
SAINT JOSEPH      41      CALM  /  2 1031.2

$$
&&




USA.gov is the U.S. government's official web portal to all federal, state and local government web resources and services.